Boone County Airport
KHRO : rendu visible

Aérodrome :











RETROUVEZ-NOUS SUR...

 
LOGIN :

S'inscrire | Disclaimer

   EN    FR    IT 

 









Légende :    VFR   VFR Marginal   IFR   IFR Intensif   IFR Très Intensif
Visi : 
Plafond : 
>= 8 km
>= 3000ft
5 à 8 km
1000 à 3000 ft
1500m à 5 km
500 à 1000 ft
800 à 1500m
200 à 500 ft
< 800m
< 200 ft
Symboles :   Orages  Brouillard  Fortes neiges  Fortes précipitations  Vent > 20 kt






- Altitude de l'aérodrome : 1365 ft
- Code IATA : HRO


KHRO - Boone County

DERNIER METAR :
  • 290553Z AUTO 28014G21KT 10SM CLR 14/01 A2986 RMK AO2 PK WND 26031/0512 SLP102 T01390011 10200 20139 402330139 53016

METARs EXPIRÉS :
  • 290453Z AUTO 27012G25KT 10SM CLR 15/01 A2983 RMK AO2 SLP091 T01500006
  • 290353Z AUTO 27008G16KT 10SM CLR 16/00 A2982 RMK AO2 SLP087 T01610000

TAF KHRO
Valide du 29 à 06h jusqu'au 30 à 06h UTC


290534Z 2906/3006 27014G20KT P6SM SKC
FM292200 26007KT P6SM SKC



MET'MAP, la Météo Aéronautique d'un coup d'oeil ! - Copyright ORBIFLY Décembre 2007 - Disclaimer

ORBIFLY MET'MAP TEAM :

Programmation & Développement : Alexandra Zaïnal
Sur une idée originale de : Baudouin d'Aumeries
Assistance à la programmation : Marc-Olivier Méhu
Soutien technique & logistique : Manuel Goepfert

Contact : metmap@orbifly.com




SOURCES & CREDITS :

   NOAA       Earth
Advisory